Location: Unspecified
(0.0000°N, 0.0000°E)
Time: 06:39:10
(UTC+00:00)

Courier 1B Rocket - Pass Details

Date: 26 November 2019
Orbit: 920 x 1202 km, 28.2° (Epoch: 10 December)

Event Time Altitude Azimuth Distance (km) Brightness Sun altitude
Rises 18:41:29 0° 311° (NW) 3,936 8.6 -12.6°
Reaches altitude 10° 18:44:19 10° 317° (NW) 3,015 7.8 -13.3°
Maximum altitude 18:51:31 48° 30° (NNE) 1,491 5.6 -15.0°
Enters shadow 18:57:16 18° 97° (E) 2,597 6.7 -16.3°
